Tetonia, ID

1:48 PM MST on February 11, 2016 (GMT -0700)
Driggs

Weather History for KDIJ - December, 2012

Change the Weather History Date:

Saturday, December 1, 2012

  Actual Average (KRXE) Record (KRXE)
Temperature  
Mean Temperature 38 °F 24 °F  
Max Temperature 43 °F 32 °F 52 °F (2012)
Min Temperature 33 °F 15 °F 3 °F (2015)
Degree Days  
Heating Degree Days 27 41  
Month to date heating degree days 41  
Since 1 July heating degree days 2053  
Cooling Degree Days 0 0  
Month to date cooling degree days 0  
Year to date cooling degree days 208  
Moisture  
Dew Point 33 °F    
Average Humidity 87    
Maximum Humidity 100    
Minimum Humidity 68    
Precipitation  
Precipitation 0.07 in 0.03 in 0.20 in (2005)
Month to date precipitation 0.03  
Year to date precipitation 12.06  
Sea Level Pressure  
Sea Level Pressure 29.94 in    
Wind  
Wind Speed 10 mph (South)    
Max Wind Speed 21 mph    
Max Gust Speed -    
Visibility 8 miles    
Events Rain , Snow    
T = Trace of Precipitation, MM = Missing Value Source: NWS Daily Summary

Daily Weather History Graph

Daily Weather History Graph

Search for Another Location

Airport or City:

Trip Planner

Search our weather history database for the weather conditions in past years. The results will help you decide how hot, cold, wet, or windy it might be!

Date:

Astronomy

Dec. 01, 2012 Rise Set
Actual Time 7:38 AM MST 4:48 PM MST
Civil Twilight 7:06 AM MST 5:20 PM MST
Nautical Twilight 6:30 AM MST 5:56 PM MST
Astronomical Twilight 5:56 AM MST 6:30 PM MST
Moon 7:43 PM MST (12/1) 9:52 AM MST (12/1)
Length of Visible Light 10h 13m
Length of Day
9h 09m
Waning Gibbous, 91% of the Moon is Illuminated
Dec 1
Waning Gibbous
Dec 6
Last Quarter
Dec 13
New
Dec 19
First Quarter
Dec 28
Full

Hourly Weather History & Observations

Time (MST) Temp. Windchill Dew Point Humidity Pressure Visibility Wind Dir Wind Speed Gust Speed Precip Events Conditions
12:21 AM 33.8 °F 25.3 °F 33.8 °F 100% 29.92 in 10.0 mi SSE 11.5 mph - 0.01 in   Mostly Cloudy
12:44 AM 33.8 °F 24.8 °F 33.8 °F 100% 29.93 in 10.0 mi South 12.7 mph - 0.01 in   Overcast
12:56 AM 34.0 °F 25.0 °F 32.9 °F 96% 29.86 in 10.0 mi SSE 12.7 mph - 0.01 in   Overcast
1:06 AM 33.8 °F 25.8 °F 33.8 °F 100% 29.93 in 10.0 mi SSE 10.4 mph - 0.00 in   Overcast
1:16 AM 33.8 °F 26.4 °F 33.8 °F 100% 29.94 in 10.0 mi SSE 9.2 mph - 0.00 in   Overcast
1:56 AM 36.0 °F 27.5 °F 34.0 °F 93% 29.86 in 10.0 mi South 12.7 mph - 0.00 in   Overcast
2:38 AM 35.6 °F 27.1 °F 33.8 °F 93% 29.96 in 10.0 mi South 12.7 mph - N/A   Mostly Cloudy
2:56 AM 36.9 °F 30.7 °F 32.9 °F 86% 29.88 in 10.0 mi South 8.1 mph - N/A   Overcast
3:56 AM 36.0 °F 29.0 °F 34.0 °F 93% 29.88 in 8.0 mi SSE 9.2 mph - 0.01 in   Mostly Cloudy
4:42 AM 37.4 °F 29.3 °F 33.8 °F 87% 29.97 in 10.0 mi South 12.7 mph - 0.00 in   Overcast
5:56 AM 37.9 °F 32.1 °F 32.0 °F 79% 29.90 in 10.0 mi SSE 8.1 mph - 0.00 in Rain Light Rain
6:39 AM 37.4 °F 31.4 °F 33.8 °F 87% 29.99 in 10.0 mi South 8.1 mph - 0.00 in   Overcast
6:49 AM 35.6 °F 29.9 °F 33.8 °F 93% 29.99 in 6.0 mi SSE 6.9 mph - 0.00 in   Overcast
7:14 AM 35.6 °F 29.2 °F 33.8 °F 93% 30.00 in 10.0 mi SE 8.1 mph - 0.00 in   Overcast
7:56 AM 36.9 °F 28.7 °F 32.9 °F 86% 29.91 in 10.0 mi South 12.7 mph - 0.00 in   Mostly Cloudy
8:27 AM 37.4 °F 26.9 °F 33.8 °F 87% 29.98 in 3.0 mi South 20.7 mph - 0.01 in Rain Light Rain
8:30 AM 37.4 °F 28.9 °F 33.8 °F 87% 29.98 in 1.8 mi South 13.8 mph - 0.01 in Rain Light Rain
8:39 AM 37.4 °F 30.3 °F 33.8 °F 87% 29.99 in 2.0 mi SSW 10.4 mph - 0.02 in Rain Light Rain
8:48 AM 35.6 °F - 33.8 °F 93% 29.99 in 7.0 mi Calm Calm - 0.03 in Snow Light Snow
9:03 AM 37.4 °F 33.8 °F 33.8 °F 87% 29.99 in 10.0 mi Variable 4.6 mph - 0.00 in Snow Light Snow
9:48 AM 37.4 °F 34.9 °F 33.8 °F 87% 29.99 in 10.0 mi South 3.5 mph - 0.00 in   Overcast
10:12 AM 35.6 °F - 33.8 °F 93% 30.00 in 10.0 mi Calm Calm - 0.00 in   Overcast
10:20 AM 35.6 °F 29.2 °F 33.8 °F 93% 30.00 in 10.0 mi SSE 8.1 mph - 0.00 in   Overcast
10:28 AM 33.8 °F 29.6 °F 32.0 °F 93% 30.01 in 1.5 mi Variable 4.6 mph - 0.01 in Snow Light Snow
10:30 AM 33.8 °F 27.7 °F 32.0 °F 93% 30.00 in 1.0 mi East 6.9 mph - 0.01 in Snow Light Snow
10:37 AM 33.8 °F 26.4 °F 32.0 °F 93% 30.00 in 0.8 mi SE 9.2 mph - 0.01 in Snow Light Snow
10:41 AM 33.8 °F 25.8 °F 32.0 °F 93% 30.00 in 1.2 mi ESE 10.4 mph - 0.01 in Snow Light Snow
10:43 AM 33.8 °F 25.3 °F 32.0 °F 93% 30.00 in 2.0 mi ESE 11.5 mph - 0.01 in Snow Light Snow
10:49 AM 33.8 °F 27.0 °F 33.8 °F 100% 30.00 in 10.0 mi East 8.1 mph - 0.01 in   Overcast
10:56 AM 34.9 °F 29.0 °F 34.0 °F 97% 29.95 in 10.0 mi East 6.9 mph - 0.02 in   Mostly Cloudy
11:56 AM 41.9 °F 34.6 °F 36.0 °F 79% 29.90 in 10.0 mi South 13.8 mph - 0.02 in   Mostly Cloudy
12:56 PM 41.9 °F 35.9 °F 34.9 °F 76% 29.90 in 10.0 mi South 10.4 mph - N/A   Overcast
1:56 PM 43.0 °F 37.7 °F 36.0 °F 76% 29.87 in 10.0 mi SE 9.2 mph - N/A   Mostly Cloudy
2:56 PM 43.0 °F 37.7 °F 34.0 °F 71% 29.87 in 10.0 mi SW 9.2 mph - 0.01 in Rain Light Rain
3:56 PM 41.0 °F 32.2 °F 34.0 °F 76% 29.91 in 10.0 mi SW 18.4 mph - 0.00 in   Overcast
4:19 PM 39.2 °F 33.0 °F 33.8 °F 81% 29.99 in 10.0 mi South 9.2 mph - 0.00 in Rain Light Rain
4:56 PM 39.9 °F 31.1 °F 32.9 °F 76% 29.90 in 10.0 mi South 17.3 mph - 0.00 in   Scattered Clouds
5:56 PM 39.9 °F 32.5 °F 32.0 °F 73% 29.91 in 10.0 mi SSW 12.7 mph - N/A   Mostly Cloudy
6:56 PM 37.9 °F 31.5 °F 32.9 °F 82% 29.92 in 10.0 mi South 9.2 mph - 0.00 in   Overcast
7:56 PM 36.9 °F 31.4 °F 32.0 °F 83% 29.92 in 10.0 mi ESE 6.9 mph - N/A   Partly Cloudy
8:56 PM 36.9 °F 29.6 °F 32.0 °F 83% 29.90 in 10.0 mi SSW 10.4 mph - N/A   Clear
9:56 PM 41.0 °F 35.2 °F 31.1 °F 68% 29.87 in 10.0 mi SSW 9.2 mph - N/A   Mostly Cloudy
11:56 PM 38.8 °F 34.6 °F 32.0 °F 76% 29.84 in 10.0 mi SSW 5.8 mph - 0.00 in   Overcast